Home   Weather   Geneva   Past weeks

Flag for Switzerland Past Weather in Geneva, Geneva, Switzerland — Yesterday and Last 2 Weeks

Now
28 °F

Fog.


Feels Like: 22 °F
Forecast: 21 / 41 °F
Wind: 6 mph from Northeast

Location: Geneve-Cointrin

Current Time: Jan 21, 2017 at 2:40:57 pm

Latest Report: Jan 21, 2017 at 1:00 pm


Visibility: 3 mi

Pressure: 30.43 "Hg

Humidity: 86%

Dew Point: 24 °F

Location of GenevaLocation

Past Weather in Geneva — Graph

°F

Geneva Temperature Yesterday

Maximum temperature yesterday: 28 °F (at 4:00 pm)
Minimum temperature yesterday: 25 °F (at 3:00 am)
Average temperature yesterday: 26 °F

High & Low Weather Summary for the Past Weeks

 TemperatureHumidityPressure
High44 °F (Jan 13, 2:00 am)100% (Jan 10, 8:00 pm)30.66 "Hg (Jan 10, 8:00 pm)
Low19 °F (Jan 7, 8:00 am)53% (Jan 13, 2:00 am)29.69 "Hg (Jan 12, 11:00 pm)
Average30 °F78%30.28 "Hg
* Reported Jan 6 1:00 pm — Jan 21 1:00 pm, Geneva, Weather by CustomWeather, © 2017

Note: Actual official high and low records may vary slightly from our data, if they occured in-between our weather recording intervals... More about our weather records

Advertising

Geneva Weather History for the Previous 24 Hours

Scroll right to see more
 ConditionsComfort  
Time TempWeatherWind HumidityBarometerVisibility
1:00 pm
Sat, Jan 21
28 °FFog.6 mph86%30.43 "Hg3 mi
12:00 pm27 °FChilly.3 mph88%30.46 "HgN/A
11:00 am26 °FChilly.3 mph89%30.47 "HgN/A
10:00 am25 °FFog.2 mph90%30.47 "Hg3 mi
9:00 am25 °FChilly.3 mph90%30.47 "HgN/A
8:00 am25 °FCold.3 mph90%30.47 "HgN/A
7:00 am25 °FFog.2 mph91%30.47 "Hg3 mi
6:00 am25 °FChilly.3 mph89%30.47 "HgN/A
5:00 am26 °FChilly.5 mph90%30.48 "HgN/A
4:00 am26 °FChilly.6 mph89%30.49 "HgN/A
3:00 am26 °FChilly.3 mph89%30.49 "HgN/A
2:00 am26 °FChilly.2 mph88%30.49 "HgN/A
1:00 am26 °FChilly.2 mph88%30.49 "HgN/A
12:00 am26 °FChilly.3 mph87%30.50 "HgN/A
11:00 pm
Fri, Jan 20
26 °FChilly.3 mph87%30.50 "HgN/A
10:00 pm26 °FFog.5 mph86%30.50 "Hg3 mi
9:00 pm27 °FChilly.5 mph89%30.49 "HgN/A
8:00 pm27 °FChilly.6 mph87%30.49 "HgN/A
7:00 pm27 °FFog.5 mph86%30.48 "Hg4 mi
6:00 pm28 °FChilly.3 mph86%30.48 "HgN/A
5:00 pm27 °FChilly.3 mph85%30.48 "HgN/A
4:00 pm28 °FFog.3 mph84%30.48 "Hg5 mi
3:00 pm27 °FChilly.3 mph85%30.48 "HgN/A
2:00 pm27 °FChilly.3 mph84%30.49 "HgN/A
Weather by CustomWeather, © 2017

See weather overviewHow to use our weather pages